Weather History for Bishop, CA

Change the Weather History Date:

Saturday, August 3, 2013

  Actual Average Record
Temperature  
Mean Temperature 73 °F 77 °F  
Max Temperature 95 °F 98 °F 106 °F (1979)
Min Temperature 50 °F 56 °F 46 °F (2004)
Degree Days  
Heating Degree Days 0 0  
Month to date heating degree days 0 0  
Since 1 June heating degree days 0 20  
Since 1 July heating degree days 0 1  
Cooling Degree Days 8 12  
Month to date cooling degree days 24 36  
Year to date cooling degree days 895 700  
Since 1 June cooling degree days 809 632  
Growing Degree Days 22 (Base 50)    
Moisture  
Dew Point 23 °F    
Average Humidity 25    
Maximum Humidity 45    
Minimum Humidity 5    
Precipitation  
Precipitation 0.00 in 0.01 in 0.06 in (2000)
Month to date precipitation 0.00 0.02  
Year to date precipitation 0.95 3.26  
Snow  
Snow 0.00 in 0.00 in - ()
Month to date snowfall 0.0 0.0  
Since 1 June snowfall 0.0 0.0  
Since 1 July snowfall 0.0 0.0  
Snow Depth 0.00 in    
Sea Level Pressure  
Sea Level Pressure 29.84 in    
Wind  
Wind Speed 9 mph (SSE)    
Max Wind Speed 24 mph    
Max Gust Speed 31 mph    
Visibility 9 miles    
Events      
T = Trace of Precipitation, MM = Missing Value Source: NWS Daily Summary

Daily Weather History Graph

Daily Weather History Graph

Search for Another Location

Airport:

Trip Planner

Search our weather history database for the weather conditions in past years. The results will help you decide how hot, cold, wet, or windy it might be!

Date:

Astronomy

Aug. 03, 2013 Rise Set
Actual Time 5:59 AM PDT 7:58 PM PDT
Civil Twilight 5:31 AM PDT 8:27 PM PDT
Nautical Twilight 4:56 AM PDT 9:02 PM PDT
Astronomical Twilight 4:18 AM PDT 9:39 PM PDT
Moon 3:13 AM PDT (8/3) 5:44 PM PDT (8/3)
Length of Visible Light 14h 56m
Length of Day
13h 59m
Waning Crescent, 9% of the Moon is Illuminated
Aug 3
Waning Crescent
Aug 6
New
Aug 14
First Quarter
Aug 20
Full
Aug 28
Last Quarter

Hourly Weather History & Observations

Time (PDT) Temp. Dew Point Humidity Pressure Visibility Wind Dir Wind Speed Gust Speed Precip Events Conditions
12:56 AM 72.0 °F 28.0 °F 20% 29.82 in 10.0 mi Calm Calm - N/A   Clear
1:56 AM 62.1 °F 28.9 °F 29% 29.84 in 8.0 mi NNW 4.6 mph - N/A   Clear
2:56 AM 60.1 °F 30.0 °F 32% 29.85 in 8.0 mi NNW 3.5 mph - N/A   Clear
3:56 AM 57.0 °F 30.9 °F 37% 29.86 in 9.0 mi Calm Calm - N/A   Clear
4:56 AM 53.1 °F 32.0 °F 45% 29.88 in 8.0 mi Calm Calm - N/A   Clear
5:56 AM 53.1 °F 30.0 °F 41% 29.89 in 6.0 mi NW 5.8 mph - N/A   Haze
6:56 AM 55.0 °F 30.0 °F 38% 29.91 in 6.0 mi North 4.6 mph - N/A   Haze
7:56 AM 66.0 °F 28.9 °F 25% 29.91 in 10.0 mi Calm Calm - N/A   Clear
8:56 AM 73.9 °F 27.0 °F 18% 29.90 in 10.0 mi Calm Calm - N/A   Clear
9:56 AM 79.0 °F 26.1 °F 14% 29.88 in 10.0 mi Calm Calm - N/A   Clear
10:56 AM 82.9 °F 26.1 °F 13% 29.87 in 10.0 mi Variable 5.8 mph - N/A   Clear
11:56 AM 87.1 °F 25.0 °F 10% 29.84 in 10.0 mi SSE 9.2 mph - N/A   Clear
12:56 PM 89.1 °F 21.0 °F 8% 29.83 in 10.0 mi South 12.7 mph 24.2 mph N/A   Clear
1:56 PM 91.0 °F 17.1 °F 7% 29.83 in 10.0 mi South 19.6 mph 25.3 mph N/A   Clear
2:56 PM 93.9 °F 14.0 °F 5% 29.81 in 10.0 mi SSE 18.4 mph 27.6 mph N/A   Clear
3:56 PM 93.9 °F 10.9 °F 5% 29.80 in 10.0 mi South 16.1 mph 27.6 mph N/A   Clear
4:56 PM 93.0 °F 12.9 °F 5% 29.80 in 10.0 mi SSE 18.4 mph 28.8 mph N/A   Clear
5:56 PM 91.9 °F 12.9 °F 5% 29.79 in 10.0 mi SSE 19.6 mph 28.8 mph N/A   Clear
6:56 PM 89.1 °F 15.1 °F 6% 29.80 in 10.0 mi SSE 21.9 mph 28.8 mph N/A   Clear
7:56 PM 82.9 °F 21.0 °F 10% 29.80 in 10.0 mi SSE 12.7 mph - N/A   Clear
8:56 PM 81.0 °F 21.9 °F 11% 29.81 in 10.0 mi SE 15.0 mph 21.9 mph N/A   Clear
9:56 PM 81.0 °F 19.9 °F 10% 29.83 in 10.0 mi SE 16.1 mph 25.3 mph N/A   Clear
10:56 PM 79.0 °F 18.0 °F 10% 29.84 in 10.0 mi SSE 12.7 mph - N/A   Clear
11:56 PM 73.0 °F 19.9 °F 14% 29.86 in 10.0 mi SSW 3.5 mph - N/A   Clear